[[{"header":{"parameterUnit":"m.s-1","parameterCategory":1,"la1":30.2991,"la2":30.254,"lo1":-89.0895,"lo2":-89.0444,"dy":0.0017,"dx":0.0017,"nx":28,"ny":28,"refTime":"2026-03-05T09:00:00:Z","depth":0,"parameterNumber":2,"parameterNumberName":"U-component_of_WINDS"},"data":[0,0,0,0,0,0,0,0,0,0,0,0,0,0,0,0,0,0,0,0,0,0,0,0,0,0,0,0,0,0,0,0,0,0,0,0,0,0,0,0,0,0,0,0,0,0,0,0,0,0,0,0,0,0,0,0,0,0,-4.8407,-4.8407,0,-4.8442,-4.8442,-4.8443,-4.8381,-4.8379,-4.8377,-4.8375,-4.8408,-4.8411,-4.8414,0,0,0,0,0,0,0,0,0,0,0,0,0,-4.8286,-4.8288,-4.8407,-4.8407,-4.8408,-4.8442,-4.8442,-4.8443,-4.8381,-4.8379,-4.8376,-4.8374,-4.8407,-4.8411,-4.8414,0,0,0,0,0,0,0,0,0,0,0,0,0,-4.8331,-4.8289,-4.8407,-4.8381,-4.8379,-4.8442,-4.8442,-4.8443,-4.8382,-4.8379,-4.8375,-4.8373,-4.8406,-4.841,-4.8415,-4.8503,0,0,-4.8427,-4.8429,0,0,0,0,0,0,0,0,-4.8329,-4.8336,-4.8384,-4.8383,-4.8381,-4.8404,-4.8412,-4.8463,-4.8382,-4.8381,-4.8375,-4.8371,-4.8409,-4.8413,-4.8426,-4.8504,-4.8506,-4.8428,-4.843,-4.8432,-4.8433,0,0,0,0,0,0,0,-4.8326,-4.8334,-4.842,-4.8385,-4.8383,-4.8368,-4.8371,-4.8421,-4.8412,-4.8381,-4.8376,-4.8381,-4.8408,-4.8422,-4.8427,-4.8506,-4.8428,-4.8431,-4.8434,-4.8436,-4.8659,-4.8662,0,0,0,0,0,0,-4.8326,-4.8332,-4.8419,-4.8422,-4.8347,-4.8372,-4.8376,-4.84,-4.8411,-4.841,-4.8384,-4.8378,-4.8417,-4.8422,-4.8428,-4.8531,-4.8432,-4.8436,-4.8439,-4.8656,-4.866,-4.8664,0,0,0,0,0,0,-4.8323,-4.8334,-4.8418,-4.8375,-4.8385,-4.8378,-4.8405,-4.8402,-4.8416,-4.8414,-4.8411,-4.8401,-4.8414,-4.8422,-4.8485,-4.8531,-4.8438,-4.8442,-4.8652,-4.8657,-4.8662,-4.8739,0,0,0,0,0,0,-4.832,-4.8334,-4.8367,-4.8377,-4.8387,-4.8475,-4.8408,-4.8405,-4.8424,-4.8417,-4.8429,-4.8428,-4.8412,-4.8479,-4.8489,-4.8535,-4.8445,-4.8648,-4.8654,-4.866,-4.8732,-4.8746,-4.8758,0,0,0,0,0,-4.8316,-4.8387,-4.8369,-4.838,-4.8429,-4.8478,-4.8484,-4.8465,-4.8428,-4.8462,-4.846,-4.8427,-4.8526,-4.8486,-4.8497,-4.8545,-4.8644,-4.8652,-4.866,-4.8726,-4.8743,-4.8758,0,0,0,0,0,0,-4.8382,-4.8388,-4.8368,-4.8444,-4.8461,-4.8467,-4.8508,-4.8484,-4.8511,-4.8503,-4.8479,-4.8482,-4.855,-4.8554,-4.851,-4.8632,-4.8579,-4.8589,-4.8626,-4.8642,-4.8654,-4.8651,-4.8449,0,0,0,0,0,-4.8405,-4.8445,-4.8448,-4.8515,-4.8525,-4.8516,-4.8536,-4.8521,-4.8537,-4.8543,-4.8546,-4.8563,-4.8597,-4.862,-4.8652,-4.8734,-4.8735,-4.8773,-4.8786,-4.8796,-4.8804,-4.8848,-4.8864,-4.8689,-4.8689,-4.8688,0,0,-4.8454,-4.8462,-4.8488,-4.8528,-4.8539,-4.858,-4.8522,-4.8567,-4.8597,-4.855,-4.8609,-4.8613,-4.863,-4.8703,-4.8735,-4.8708,-4.8854,-4.8806,-4.8815,-4.8817,-4.8857,-4.8874,-4.8889,-4.8694,-4.8693,-4.8692,0,0,-4.8562,-4.8574,-4.863,-4.8643,-4.8662,-4.8656,-4.867,-4.8681,-4.8681,-4.8741,-4.8707,-4.8742,-4.8802,-4.8816,-4.883,-4.8948,-4.8918,-4.8959,-4.9025,-4.9068,-4.9081,-4.9093,-4.9134,-4.9149,-4.8968,-4.8968,-4.8968,0,-4.8619,-4.868,-4.8662,-4.8711,-4.8729,-4.8691,-4.8747,-4.8761,-4.8789,-4.8802,-4.8773,-4.8848,-4.8857,-4.8932,-4.8961,-4.8975,-4.8989,-4.8956,-4.9081,-4.9093,-4.9104,-4.9142,-4.9157,-4.8973,-4.8972,-4.8972,-4.8971,0,-4.8749,-4.8792,-4.8836,-4.8865,-4.8889,-4.8941,-4.8931,-4.8957,-4.8941,-4.8938,-4.9,-4.901,-4.9043,-4.9061,-4.9045,-4.9134,-4.9117,-4.9085,-4.9031,-4.9126,-4.9161,-4.9175,-4.8979,-4.8978,-4.8976,-4.8975,0,0,-4.8896,-4.8917,-4.8933,-4.8945,-4.8965,-4.8997,-4.9049,-4.9082,-4.9105,-4.9126,-4.9168,-4.9221,-4.9192,-4.9209,-4.9195,-4.9233,-4.9323,-4.9196,-4.9196,-4.9217,-4.9421,-4.9443,-4.9461,-4.9306,-4.9309,-4.9311,-4.9419,0,-4.9003,-4.9091,-4.9078,-4.9163,-4.9202,-4.9168,-4.9213,-4.9229,-4.9229,-4.9262,-4.9262,-4.9299,-4.9259,-4.9269,-4.9305,-4.9305,-4.9364,-4.9297,-4.9342,-4.9344,-4.9336,-4.9479,-4.9502,-4.9604,-4.9433,-4.9436,-4.9437,0,-4.9137,-4.9165,-4.9255,-4.9269,-4.9285,-4.9325,-4.9355,-4.9388,-4.9406,-4.9403,-4.9424,-4.9403,-4.9454,-4.9403,-4.9472,-4.9427,-4.9446,-4.9449,-4.9453,-4.9453,-4.9394,-4.9482,-4.9636,-4.965,-4.9459,-4.9457,-4.9456,0,-4.9233,-4.9293,-4.9354,-4.9367,-4.9385,-4.9414,-4.9423,-4.9439,-4.946,-4.9487,-4.95,-4.9533,-4.955,-4.9575,-4.9564,-4.9527,-4.9636,-4.9583,-4.9633,-4.9634,-4.9654,-4.9653,-4.9812,-4.9672,-4.9671,-4.9671,-4.9671,0,-4.9352,-4.9407,-4.9398,-4.9435,-4.9497,-4.9482,-4.9543,-4.9548,-4.9562,-4.96,-4.9573,-4.9609,-4.9593,-4.9628,-4.962,-4.9678,-4.9687,-4.9685,-4.9682,-4.9686,-4.9686,-4.9695,-4.9686,-4.9675,-4.9674,-4.9674,-4.9673,0,-4.9467,-4.9463,-4.9527,-4.9541,-4.9546,-4.959,-4.9601,-4.9636,-4.9635,-4.9683,-4.9694,-4.9692,-4.9731,-4.9724,-4.9768,-4.9762,-4.9835,-4.9824,-4.9828,-4.9825,-4.9875,-4.9869,-5.0043,-5.0064,-4.9913,-4.9915,-4.9916,0,-4.9541,-4.9583,-4.9602,-4.9626,-4.9637,-4.9676,-4.9698,-4.9686,-4.971,-4.9735,-4.9767,-4.9805,-4.9834,-4.9899,-4.9901,-4.9935,-4.9923,-4.9982,-4.9927,-4.993,-4.9921,-4.9917,-4.9921,-4.9991,-4.9993,-4.9994,-4.9995,0,-4.9673,-4.9669,-4.9703,-4.9736,-4.9764,-4.9789,-4.9812,-4.9833,-4.9823,-4.9851,-4.9892,-4.9915,-4.9961,-4.9998,-5.003,-5.0038,-5.0015,-5.0013,-5.0026,-5.0029,-5.0029,-5.0027,-4.9855,-5.0008,-5.0007,-5.0006,-5.0005,-5.0005,-4.9768,-4.9804,-4.9823,-4.9861,-4.9878,-4.99,-4.9934,-4.9938,-4.9972,-5.0008,-5.0,-5.0046,-5.0065,-5.0105,-5.0118,-5.0153,-5.0131,-5.0151,-5.0155,-5.0159,-5.0164,-5.0026,-5.016,-5.0159,-5.0159,-5.0158,-5.0158,0,-4.9896,-4.9907,-4.9943,-4.9976,-5.0007,-4.9985,-5.001,-5.0036,-5.0077,-5.0097,-5.0127,-5.0175,-5.0211,-5.0218,-5.0253,-5.028,-5.027,-5.029,-5.0286,-5.0288,-5.0183,-5.0167,-5.0297,-5.0297,-5.0297,-5.0297,-5.0297,-5.0297,-4.9966,-5.0025,-5.0025,-5.0092,-5.0103,-5.0149,-5.0164,-5.0185,-5.0201,-5.0255,-5.0286,-5.0291,-5.0306,-5.0342,-5.0375,-5.0376,-5.0389,-5.0411,-5.0408,-5.0309,-5.0295,-5.0282,-5.0267,-5.0415,-5.0415,-5.0509,-5.051,-5.0511]},{"header":{"parameterUnit":"m.s-1","parameterCategory":1,"la1":30.2991,"la2":30.254,"lo1":-89.0895,"lo2":-89.0444,"dy":0.0017,"dx":0.0017,"nx":28,"ny":28,"refTime":"2026-03-05T09:00:00:Z","depth":0,"parameterNumber":3,"parameterNumberName":"V-component_of_WINDS"},"data":[0,0,0,0,0,0,0,0,0,0,0,0,0,0,0,0,0,0,0,0,0,0,0,0,0,0,0,0,0,0,0,0,0,0,0,0,0,0,0,0,0,0,0,0,0,0,0,0,0,0,0,0,0,0,0,0,0,0,2.4058,2.4059,0,2.408,2.408,2.4081,2.4075,2.4075,2.4074,2.4074,2.4094,2.4095,2.4096,0,0,0,0,0,0,0,0,0,0,0,0,0,2.4012,2.4013,2.4058,2.4059,2.4059,2.408,2.408,2.4081,2.4075,2.4075,2.4074,2.4074,2.4094,2.4095,2.4096,0,0,0,0,0,0,0,0,0,0,0,0,0,2.4033,2.4013,2.4058,2.4059,2.4059,2.408,2.408,2.4081,2.4075,2.4074,2.4074,2.4073,2.4093,2.4095,2.4096,2.4117,0,0,2.41,2.4101,0,0,0,0,0,0,0,0,2.4031,2.4034,2.4058,2.4059,2.4059,2.4074,2.4071,2.4093,2.4075,2.4069,2.4074,2.4073,2.4088,2.409,2.4095,2.4118,2.4119,2.41,2.4101,2.4102,2.4102,0,0,0,0,0,0,0,2.403,2.4033,2.4067,2.4059,2.4059,2.4058,2.406,2.4076,2.4082,2.4069,2.4069,2.4072,2.4088,2.4094,2.4095,2.412,2.41,2.4102,2.4102,2.4103,2.4165,2.4166,0,0,0,0,0,0,2.4028,2.4032,2.4066,2.4068,2.4043,2.4059,2.4062,2.407,2.4081,2.4083,2.4072,2.4072,2.4092,2.4094,2.4096,2.4124,2.4102,2.4103,2.4104,2.4164,2.4165,2.4166,0,0,0,0,0,0,2.4027,2.4031,2.4065,2.405,2.4054,2.4061,2.407,2.4071,2.4077,2.4084,2.4085,2.4077,2.4091,2.4094,2.4113,2.4125,2.4104,2.4105,2.4163,2.4164,2.4165,2.4179,0,0,0,0,0,0,2.4026,2.4031,2.4039,2.405,2.4055,2.4082,2.4071,2.4072,2.4079,2.4078,2.4089,2.409,2.4091,2.4111,2.4114,2.4126,2.4106,2.4162,2.4164,2.4165,2.4177,2.418,2.4183,0,0,0,0,0,2.4024,2.4041,2.404,2.4044,2.4065,2.4083,2.4085,2.4087,2.408,2.4089,2.4094,2.4089,2.4123,2.4113,2.4117,2.4129,2.4161,2.4163,2.4165,2.4176,2.418,2.4183,0,0,0,0,0,0,2.403,2.4042,2.4041,2.4061,2.4071,2.4082,2.4092,2.409,2.4102,2.41,2.4101,2.4104,2.4124,2.4128,2.4117,2.4152,2.4141,2.4144,2.4148,2.4152,2.4155,2.4153,2.4107,0,0,0,0,0,2.4033,2.4047,2.4057,2.4074,2.4079,2.4085,2.4093,2.4094,2.4103,2.4107,2.4113,2.4123,2.4136,2.4144,2.4156,2.4178,2.4181,2.4189,2.4192,2.4194,2.4196,2.4211,2.4215,2.4172,2.4172,2.4172,0,0,2.4041,2.4049,2.4057,2.4076,2.4083,2.4098,2.4088,2.4103,2.4114,2.4109,2.4128,2.4133,2.4144,2.4165,2.4175,2.417,2.4209,2.4196,2.4198,2.4199,2.4213,2.4217,2.4221,2.4173,2.4173,2.4173,0,0,2.4062,2.4069,2.4086,2.4094,2.4107,2.4111,2.4115,2.4126,2.413,2.415,2.4147,2.416,2.4181,2.419,2.4197,2.4225,2.4222,2.4229,2.4243,2.4257,2.4261,2.4264,2.4275,2.4279,2.4231,2.4231,2.4231,0,2.4069,2.4091,2.4094,2.411,2.4119,2.4117,2.4134,2.4142,2.4157,2.4164,2.4158,2.4187,2.4194,2.4218,2.4226,2.4231,2.4237,2.4228,2.426,2.4263,2.4266,2.4277,2.4281,2.4232,2.4232,2.4232,2.4232,0,2.4101,2.4116,2.4128,2.4145,2.4155,2.4171,2.4177,2.4187,2.4188,2.4193,2.4214,2.4222,2.4237,2.4243,2.4243,2.4269,2.4265,2.426,2.4249,2.4271,2.4282,2.4286,2.4233,2.4233,2.4233,2.4232,0,0,2.4124,2.4144,2.4149,2.4158,2.4173,2.4185,2.4202,2.4218,2.4227,2.4238,2.4254,2.4274,2.427,2.4278,2.4279,2.4291,2.4316,2.4285,2.4285,2.4291,2.4347,2.4352,2.4356,2.4314,2.4315,2.4315,2.4346,0,2.4147,2.4178,2.4183,2.4211,2.4226,2.4226,2.4241,2.4252,2.4258,2.4272,2.4278,2.4293,2.4286,2.4291,2.4303,2.431,2.4327,2.4308,2.4329,2.4329,2.4327,2.4361,2.4366,2.4395,2.435,2.4351,2.4351,0,2.4178,2.4193,2.4222,2.4238,2.4245,2.4258,2.4275,2.4288,2.4302,2.4305,2.4316,2.4317,2.4335,2.4324,2.435,2.4338,2.4346,2.4351,2.4353,2.4355,2.4342,2.4366,2.4404,2.4409,2.4358,2.4357,2.4357,0,2.4194,2.4221,2.4243,2.425,2.4269,2.4279,2.4287,2.43,2.431,2.4325,2.4332,2.4348,2.4356,2.4369,2.4374,2.4365,2.4401,2.439,2.4405,2.4405,2.4413,2.4413,2.4454,2.4417,2.4417,2.4417,2.4417,0,2.4221,2.4239,2.4251,2.4264,2.4286,2.4292,2.4313,2.432,2.4332,2.4348,2.4348,2.4362,2.4368,2.4384,2.4388,2.441,2.4414,2.4418,2.4419,2.4418,2.4418,2.4425,2.4423,2.4418,2.4418,2.4418,2.4418,0,2.4242,2.425,2.4275,2.4291,2.4296,2.4311,2.4325,2.4339,2.4346,2.4366,2.4371,2.4381,2.44,2.4406,2.4428,2.4431,2.4458,2.4457,2.4454,2.4454,2.447,2.4469,2.4518,2.4525,2.4483,2.4483,2.4484,0,2.4258,2.4273,2.4292,2.4303,2.4312,2.433,2.4341,2.4348,2.436,2.4378,2.439,2.4409,2.4424,2.4454,2.4464,2.4482,2.4481,2.4497,2.4484,2.4484,2.4483,2.4483,2.4485,2.45,2.45,2.4501,2.4501,0,2.4287,2.4292,2.4308,2.4328,2.4342,2.4357,2.4371,2.438,2.4389,2.4403,2.4423,2.4435,2.446,2.4479,2.4498,2.4506,2.4506,2.4505,2.451,2.451,2.4509,2.4511,2.4462,2.4504,2.4504,2.4503,2.4503,2.4503,2.4308,2.4322,2.4338,2.4358,2.437,2.4384,2.4399,2.4409,2.4426,2.4447,2.445,2.4472,2.4488,2.4513,2.4522,2.454,2.4536,2.4542,2.4544,2.4546,2.4548,2.4506,2.4543,2.4543,2.4543,2.4543,2.4543,0,2.4338,2.4349,2.4367,2.4389,2.4405,2.4404,2.4421,2.4435,2.4455,2.4469,2.4486,2.451,2.453,2.4542,2.4562,2.4574,2.4574,2.4579,2.4578,2.4581,2.455,2.4544,2.4578,2.4578,2.4578,2.4578,2.4578,2.4578,2.4356,2.438,2.4387,2.4419,2.443,2.4453,2.4463,2.4477,2.4489,2.4517,2.4534,2.4542,2.4556,2.4578,2.4596,2.4599,2.4607,2.4613,2.4615,2.4586,2.4583,2.4579,2.4574,2.4614,2.4614,2.4645,2.4645,2.4646]}]]